Change the Weather History Date:

Tuesday, April 8, 2014

  Actual Average (KDEQ) Record (KDEQ)
Temperature  
Mean Temperature 56 °F 59 °F  
Max Temperature 68 °F 72 °F 87 °F (1980)
Min Temperature 42 °F 46 °F 30 °F (1990)
Degree Days  
Heating Degree Days 9 7  
Month to date heating degree days 62  
Since 1 July heating degree days 2930  
Cooling Degree Days 0 1  
Month to date cooling degree days 8  
Year to date cooling degree days 19  
Growing Degree Days 6 (Base 50)    
Moisture  
Dew Point 38 °F    
Average Humidity 59    
Maximum Humidity 94    
Minimum Humidity 19    
Precipitation  
Precipitation 0.00 in 0.10 in 2.80 in (1942)
Month to date precipitation 0.91  
Year to date precipitation 12.55  
Snow  
Snow 0.00 in - - ()
Month to date snowfall  
Since 1 July snowfall  
Snow Depth -    
Sea Level Pressure  
Sea Level Pressure 30.00 in    
Wind  
Wind Speed 9 mph (NW)    
Max Wind Speed 28 mph    
Max Gust Speed 41 mph    
Visibility 10 miles    
Events      
T = Trace of Precipitation, MM = Missing Value Source: NWS Daily Summary

Daily Weather History Graph

Daily Weather History Graph

Search for Another Location

Airport or City:

Trip Planner

Search our weather history database for the weather conditions in past years. The results will help you decide how hot, cold, wet, or windy it might be!

Date:

Astronomy

Apr. 08, 2014 Rise Set
Actual Time 6:57 AM CDT 7:45 PM CDT
Civil Twilight 6:32 AM CDT 8:10 PM CDT
Nautical Twilight 6:02 AM CDT 8:40 PM CDT
Astronomical Twilight 5:31 AM CDT 9:11 PM CDT
Moon 1:55 PM CDT (4/8) 2:54 AM CDT (4/8)
Length of Visible Light 13h 38m
Length of Day
12h 47m
Waxing Gibbous, 63% of the Moon is Illuminated
Apr 8
Waxing Gibbous
Apr 15
Full
Apr 22
Last Quarter
Apr 29
New
May 6
First Quarter

Hourly Weather History & Observations

Time (CDT) Temp. Windchill Dew Point Humidity Pressure Visibility Wind Dir Wind Speed Gust Speed Precip Events Conditions
12:02 AM 50.0 °F - 48.2 °F 94% 29.93 in 10.0 mi SSW 5.8 mph - N/A   Scattered Clouds
12:21 AM 50.0 °F - 48.2 °F 94% 29.93 in 10.0 mi SW 5.8 mph - N/A   Scattered Clouds
12:40 AM 50.0 °F - 48.2 °F 94% 29.94 in 10.0 mi Calm Calm - N/A   Scattered Clouds
1:00 AM 50.0 °F - 46.4 °F 87% 29.94 in 10.0 mi Calm Calm - N/A   Scattered Clouds
1:20 AM 48.2 °F - 46.4 °F 93% 29.94 in 10.0 mi Calm Calm - N/A   Clear
1:42 AM 48.2 °F - 46.4 °F 93% 29.93 in 10.0 mi West 4.6 mph - N/A   Clear
2:00 AM 48.2 °F - 46.4 °F 93% 29.92 in 10.0 mi West 5.8 mph - N/A   Clear
2:20 AM 48.2 °F - 46.4 °F 93% 29.91 in 10.0 mi Calm Calm - N/A   Clear
2:40 AM 48.2 °F - 46.4 °F 93% 29.91 in 10.0 mi West 6.9 mph - N/A   Clear
3:02 AM 48.2 °F - 46.4 °F 93% 29.92 in 10.0 mi West 6.9 mph - N/A   Clear
3:20 AM 48.2 °F - 46.4 °F 93% 29.91 in 10.0 mi West 4.6 mph - N/A   Clear
3:42 AM 48.2 °F - 46.4 °F 93% 29.90 in 10.0 mi WNW 4.6 mph - N/A   Clear
4:00 AM 48.2 °F - 46.4 °F 93% 29.90 in 10.0 mi WNW 4.6 mph - N/A   Clear
4:20 AM 48.2 °F - 46.4 °F 93% 29.90 in 10.0 mi WNW 4.6 mph - N/A   Scattered Clouds
4:40 AM 48.2 °F - 46.4 °F 93% 29.90 in 10.0 mi WNW 5.8 mph - N/A   Clear
5:00 AM 48.2 °F - 46.4 °F 93% 29.90 in 10.0 mi NW 8.1 mph - N/A   Clear
5:20 AM 48.2 °F - 46.4 °F 93% 29.90 in 10.0 mi WNW 9.2 mph 16.1 mph N/A   Clear
5:40 AM 48.2 °F - 44.6 °F 87% 29.90 in 10.0 mi NW 6.9 mph - N/A   Clear
6:00 AM 48.2 °F - 44.6 °F 87% 29.91 in 10.0 mi WNW 6.9 mph - N/A   Scattered Clouds
6:22 AM 48.2 °F - 44.6 °F 87% 29.93 in 10.0 mi WNW 8.1 mph - N/A   Scattered Clouds
6:40 AM 48.2 °F - 44.6 °F 87% 29.93 in 10.0 mi WNW 6.9 mph - N/A   Clear
7:00 AM 48.2 °F - 44.6 °F 87% 29.94 in 10.0 mi WNW 8.1 mph - N/A   Scattered Clouds
7:20 AM 46.4 °F 43.5 °F 42.8 °F 87% 29.94 in 10.0 mi West 5.8 mph - N/A   Scattered Clouds
7:40 AM 46.4 °F 42.9 °F 42.8 °F 87% 29.96 in 10.0 mi West 6.9 mph - N/A   Clear
8:00 AM 46.4 °F 42.9 °F 44.6 °F 93% 29.97 in 10.0 mi West 6.9 mph - N/A   Clear
8:20 AM 48.2 °F - 44.6 °F 87% 29.97 in 10.0 mi West 6.9 mph - N/A   Clear
8:40 AM 51.8 °F - 44.6 °F 76% 29.97 in 10.0 mi WNW 8.1 mph - N/A   Clear
9:00 AM 53.6 °F - 44.6 °F 72% 29.98 in 10.0 mi NW 9.2 mph - N/A   Clear
9:20 AM 53.6 °F - 44.6 °F 72% 29.98 in 10.0 mi NW 13.8 mph 20.7 mph N/A   Clear
9:40 AM 55.4 °F - 44.6 °F 67% 29.98 in 10.0 mi NW 15.0 mph 21.9 mph N/A   Clear
10:01 AM 55.4 °F - 44.6 °F 67% 29.98 in 10.0 mi NNW 11.5 mph - N/A   Clear
10:21 AM 57.2 °F - 44.6 °F 63% 29.99 in 10.0 mi NNW 11.5 mph 19.6 mph N/A   Clear
10:41 AM 59.0 °F - 44.6 °F 59% 30.01 in 10.0 mi NNW 17.3 mph - N/A   Clear
11:01 AM 60.8 °F - 42.8 °F 52% 30.01 in 10.0 mi NW 18.4 mph 23.0 mph N/A   Clear
11:21 AM 60.8 °F - 42.8 °F 52% 30.01 in 10.0 mi NW 12.7 mph 23.0 mph N/A   Clear
12:01 PM 62.6 °F - 42.8 °F 48% 30.02 in 10.0 mi NW 15.0 mph 23.0 mph N/A   Clear
12:21 PM 62.6 °F - 42.8 °F 48% 30.02 in 10.0 mi NW 15.0 mph 24.2 mph N/A   Clear
12:41 PM 64.4 °F - 41.0 °F 42% 30.01 in 10.0 mi NW 20.7 mph 27.6 mph N/A   Scattered Clouds
1:01 PM 64.4 °F - 39.2 °F 40% 30.00 in 10.0 mi NNW 25.3 mph 33.4 mph N/A   Clear
1:21 PM 66.2 °F - 35.6 °F 32% 30.01 in 10.0 mi NW 26.5 mph 41.4 mph N/A   Clear
1:41 PM 66.2 °F - 35.6 °F 32% 30.00 in 10.0 mi NNW 24.2 mph 32.2 mph N/A   Clear
2:01 PM 64.4 °F - 35.6 °F 34% 30.00 in 10.0 mi NW 20.7 mph 32.2 mph N/A   Clear
2:21 PM 64.4 °F - 32.0 °F 30% 30.00 in 10.0 mi NNW 25.3 mph 34.5 mph N/A   Clear
2:41 PM 66.2 °F - 33.8 °F 30% 29.99 in 10.0 mi NW 20.7 mph 38.0 mph N/A   Clear
3:01 PM 66.2 °F - 32.0 °F 28% 29.99 in 10.0 mi NW 21.9 mph 35.7 mph N/A   Clear
3:21 PM 64.4 °F - 32.0 °F 30% 30.00 in 10.0 mi NW 25.3 mph 33.4 mph N/A   Clear
3:41 PM 64.4 °F - 30.2 °F 28% 30.00 in 10.0 mi NW 23.0 mph 36.8 mph N/A   Clear
4:01 PM 66.2 °F - 28.4 °F 24% 30.00 in 10.0 mi NW 24.2 mph 38.0 mph N/A   Clear
4:21 PM 66.2 °F - 28.4 °F 24% 30.00 in 10.0 mi North 19.6 mph 32.2 mph N/A   Clear
4:41 PM 68.0 °F - 26.6 °F 21% 30.01 in 10.0 mi NW 23.0 mph 40.3 mph N/A   Clear
5:02 PM 68.0 °F - 26.6 °F 21% 30.01 in 10.0 mi NW 18.4 mph 32.2 mph N/A   Clear
5:21 PM 66.2 °F - 26.6 °F 23% 30.01 in 10.0 mi North 27.6 mph 33.4 mph N/A   Clear
5:41 PM 66.2 °F - 24.8 °F 21% 30.02 in 10.0 mi NNW 24.2 mph 31.1 mph N/A   Clear
6:01 PM 66.2 °F - 23.0 °F 19% 30.02 in 10.0 mi NNW 20.7 mph 34.5 mph N/A   Clear
6:21 PM 66.2 °F - 24.8 °F 21% 30.03 in 10.0 mi NNW 15.0 mph 26.5 mph N/A   Clear
6:41 PM 64.4 °F - 24.8 °F 22% 30.04 in 10.0 mi NNW 17.3 mph 25.3 mph N/A   Clear
7:01 PM 64.4 °F - 23.0 °F 21% 30.05 in 10.0 mi North 13.8 mph 25.3 mph N/A   Clear
7:21 PM 62.6 °F - 24.8 °F 24% 30.06 in 10.0 mi NNW 15.0 mph 20.7 mph N/A   Clear
7:41 PM 60.8 °F - 23.0 °F 23% 30.07 in 10.0 mi NNW 12.7 mph 19.6 mph N/A   Clear
8:01 PM 59.0 °F - 24.8 °F 27% 30.08 in 10.0 mi NNW 6.9 mph - N/A   Clear
8:21 PM 57.2 °F - 24.8 °F 29% 30.09 in 10.0 mi NNW 4.6 mph - N/A   Clear
8:41 PM 55.4 °F - 24.8 °F 31% 30.10 in 10.0 mi NNW 3.5 mph - N/A   Clear
9:01 PM 53.6 °F - 24.8 °F 33% 30.11 in 10.0 mi Calm Calm - N/A   Clear
9:21 PM 51.8 °F - 23.0 °F 33% 30.12 in 10.0 mi Calm Calm - N/A   Clear
9:41 PM 51.8 °F - 26.6 °F 38% 30.12 in 10.0 mi Calm Calm - N/A   Clear
10:01 PM 46.4 °F - 30.2 °F 53% 30.13 in 10.0 mi Calm Calm - N/A   Clear
10:21 PM 48.2 °F - 30.2 °F 50% 30.14 in 10.0 mi Calm Calm - N/A   Clear
10:41 PM 46.4 °F - 33.8 °F 62% 30.14 in 10.0 mi Calm Calm - N/A   Clear
11:01 PM 44.6 °F - 30.2 °F 57% 30.14 in 10.0 mi Calm Calm - N/A   Clear
11:21 PM 44.6 °F - 33.8 °F 66% 30.15 in 10.0 mi Calm Calm - N/A   Clear
11:41 PM 42.8 °F - 35.6 °F 76% 30.15 in 10.0 mi Calm Calm - N/A   Clear